www.pogodaiklimat.ru

Погода и климат >> Архив погоды >> Боливия >> Ascencion De Guaray


ПОГОДА в Ascencion De Guaray

  • Прогноз погоды в Ascencion De Guaray
  • Монитор погоды в Ascencion De Guaray
  • Климат города

АРХИВ ПОГОДЫ в Ascencion De Guaray

Время (UTC), дата Ветер
(напр.,м/с)
 
Видим.   Явления Облачность Т
(С)
Тd
(С)
f
(%)
Тe
(С)
Тes
(С)
Комфортность P
(гПа)
Po
(гПа)
Тmin
(С)
Tmax
(С)
R
(мм)
R24
(мм)
S
(см)
12 7.12 Ю 8 20 км 10/10 450 м
[Sc]
+21.0 +20.1 95 +26 +26 душно 1017.8 989.5 +21.0
15 7.12 Ю 8 20 км 10/10 450 м
[Sc]
+23.0 +17.8 73 +28 +28 душно 1019.9 991.5
18 7.12 Ю 6 20 км 10/10 450 м
[Sc]
+23.2 +18.0 73 +29 +29 душно 1017.9 989.7
21 7.12 Ю 5 20 км 10/10 450 м
[Sc]
+22.2 +17.7 76 +27 +27 душно 1012.2 987.7 +24.2
12 8.12 Ю 5 20 км 8/0
[Cs]
+22.2 +16.6 71 +27 +29 душно 1017.9 989.8 +20.0
15 8.12 Ю 4 20 км 10/0
[Cs]
+26.2 +18.2 61 +31 +43 очень
душно
1017.2 989.0
18 8.12 Ю 3 20 км 10/3 600 м
[Cu hum Ci]
+30.0 +22.5 64 +39 +47 очень
душно
1014.9 986.6
21 8.12 С 3 20 км 10/4 600 м
[Cu hum Ci]
+30.0 +22.5 64 +39 +41 очень
душно
1012.2 984.0 +32.0
12 9.12 штиль 0 20 км ясно +25.0 +22.9 88 +33 +41 очень
душно
1014.7 986.6 +23.0
15 9.12 С 4 20 км 5/5 600 м
[Cu hum]
+30.0 +24.0 70 +41 +48 опасность
перегрева
1014.8 986.6
18 9.12 С 5 20 км 6/6 600 м
[Cu hum]
+31.5 +24.2 65 +43 +47 опасность
перегрева
1012.8 984.6
21 9.12 С 6 20 км 5/5 600 м
[Cu hum]
+32.0 +24.0 63 +44 +45 опасность
перегрева
1010.4 982.5 +32.0
12 10.12 С 3 20 км 8/0
[Cs]
+25.8 +23.3 86 +35 +39 очень
душно
1015.0 987.0 +23.6
15 10.12 СЗ 4 20 км 8/0
[Cs]
+31.2 +24.6 68 +44 +55 опасность
перегрева
1015.0 987.0
18 10.12 СЗ 3 20 км 8/5 600 м
[Cu med, cong Cs]
+34.2 +24.4 57 +47 +53 опасность
перегрева
1012.9 984.6
21 10.12 СЗ 3 20 км 3/3 600 м
[Cu med, cong]
+33.3 +24.0 58 +45 +47 опасность
перегрева
1010.2 982.0 +35.2
12 11.12 штиль 0 20 км 10/5 450 м
[Sc Ac trans]
+24.8 +23.6 93 +34 +35 очень
душно
1016.0 987.6 +23.4
15 11.12 С 3 20 км 8/3 600 м
[Cu hum Cs]
+29.6 +24.2 73 +41 +51 опасность
перегрева
1015.6 987.0
18 11.12 СЗ 4 20 км 10/3 600 м
[Cu med, cong Ac trans Cs]
+32.0 +24.2 63 +44 +48 опасность
перегрева
1013.2 985.3
21 11.12 СЗ 3 20 км 10/3 600 м
[Cu hum Cs]
+30.6 +23.2 65 +41 +43 опасность
перегрева
1010.2 982.2 +32.8
12 12.12 СЗ 4 20 км 8/6 450 м
[Sc Cs]
+25.6 +23.7 89 +35 +36 очень
душно
1013.9 985.8 +23.8
15 12.12 СЗ 5 20 км 8/4 600 м
[Cu med, cong Cs]
+30.2 +24.2 70 +42 +47 опасность
перегрева
1014.5 986.3
18 12.12 С 8 20 км 6/5 600 м
[Cu hum Ci fib]
+32.0 +24.0 63 +44 +46 опасность
перегрева
1013.1 985.0
21 12.12 СЗ 5 20 км 4/4 600 м
[Cu hum]
+32.0 +24.0 63 +44 +45 опасность
перегрева
1009.3 981.2 +34.0
12 13.12 СЗ 3 20 км 10/0 2000 м
[As op Ci]
+25.8 +23.7 88 +35 +37 очень
душно
1014.8 986.6 +24.0
15 13.12 С 6 20 км 10/5 500 м
[Sc Ci]
+29.5 +24.8 76 +42 +45 опасность
перегрева
1014.7 986.6
21 13.12 С 3 20 км {гроза, дождь} 10/10 450 м
[Sc]
+25.0 +23.0 89 +33 +33 очень
душно
1010.2 982.0 +31.2

 

Местоположение метеостанции Ascencion De Guaray (Боливия): широта -15.71 долгота -63.10 высота над уровнем моря 247 м.

В архиве по умолчанию представлена погода в Ascencion De Guaray за последнюю неделю. Архивные данные за месяц целиком и за предыдущие месяцы, начиная с января 2011 года, Вы можете получить, выбрав интересующий диапазон дат из раскрывающегося списка и нажав кнопку "Ввод!".


*Определитесь, кто Вы:
робот инопланетянин человек

Внимание! Время в таблицах - всемирное. Для получения местного времени необходимо прибавить поправку, которая в Ascencion De Guaray равна -4 ч.

Смотрите также архив погоды в соседних городах и на ближайших метеорологических станциях:

Погода в San Javier (Боливия) (92 км)
Погода в Concepcion (Боливия) (126 км)
Погода в Viru-Viru (Боливия) (214 км)
Погода в Trinidad (Боливия) (218 км)
Погода в Santa Cruz (Боливия) (233 км)
Погода в San Ignacio De Velasco (Боливия) (241 км)
Погода в San Ignacio De Moxo (Боливия) (283 км)
Погода в Magdalena (Боливия) (286 км)
Погода в San Ramon (Боливия) (319 км)
Погода в Vallegrande (Боливия) (323 км)

Пояснения к столбцам:

Ветер - указаны скорость ветра в м/с - средняя за 10 мин, порывы в срок и между сроками (в фигурных скобках) и направление, откуда дует ветер: С - северный, СВ - северо-восточный, В - восточный, ЮВ - юго-восточный, Ю - южный, ЮЗ - юго-западный, З - западный, СЗ - северо-западный.
Видимость - горизонтальная дальность видимости в метрах или километрах. При видимости от 1 до 10 км при отсутствии осадков обычно наблюдается дымка, при ухудшении видимости до 1 км и менее - туман. В сухую погоду видимость может ухудшаться дымом, пылью или мглою.
Явления - указаны атмосферные явления, наблюдавшиеся в срок или в последний час перед сроком; фигурными скобками обозначены явления, наблюдавшиеся между сроками (за 1-3 часа до срока); квадратными скобками обозначены град или гололедные отложения с указанием их диаметра в мм.
Облачность - указаны через наклонную черту общая и нижняя облачность в баллах и высота нижней границы облаков в метрах; квадратными скобками обозначены формы облаков: Ci - перистые, Cs - перисто-слоистые, Cc - перисто-кучевые, Ac - высококучевые, As - высокослоистые, Sc - слоисто-кучевые, Ns - слоисто-дождевые, Cu - кучевые, Cb - кучево-дождевые. Подробнее классификацию облаков см. в Атласе облаков (PDF).
T - Температура воздуха - температура, измеренная на высоте 2 м над землей.
Td - Температура точки росы - температура, при понижении до которой содержащийся в воздухе водяной пар достигнет насыщения.
f - Относительная влажность воздуха - влажноcть воздуха, измеренная на высоте 2 м над землей.
Te - Эффективная температура - температура, которую ощущает одетый по сезону человек в тени. Характеристика душности погоды. При расчете учитывается влияние влажности воздуха и скорости ветра на теплоощущения человека.
Tes - Эффективная температура на солнце - температура, которую ощущает человек, с поправкой на солнечный нагрев. Характеристика знойности погоды. Зависит от высоты солнца над горизонтом, облачности и скорости ветра. Ночью, в пасмурную погоду, а также при ветре 12 м/с и более поправка равна нулю.
P - Атмосферное давление - приведенное к уровню моря атмосферное давление.
Po - Атмосферное давление - измеренное на уровне метеостанции атмосферное давление.
Tmin - Минимальная температура - минимум температуры воздуха на высоте 2 м над землей.
Tmax - Максимальная температура - максимум температуры воздуха на высоте 2 м над землей.
R - Количество осадков - Количество выпавших осадков за период времени, мм. При наведении курсора мыши на число - период времени, за который выпало указанное количество осадков.
R24 - Количество осадков - Количество выпавших осадков за 24 часа, мм.
S - Снежный покров - Высота снежного покрова, см. При наведении курсора мыши на число - состояние снежного покрова и степень покрытия местности в баллах.